Location: Unspecified
(41.5000°N, 0.0000°E)
Time: 00:26:23
(UTC+00:00)

Vanguard 3 - Pass Details

Date: 20 June 2019
Orbit: 507 x 3264 km, 33.4° (Epoch: 20 July)

Event Time Altitude Azimuth Distance (km) Brightness Sun altitude
Rises 16:48:10 0° 265° (W) 3,507 11.6 28.7°
Reaches altitude 10° 16:52:05 10° 244° (WSW) 2,168 10.4 28.0°
Maximum altitude 16:54:46 15° 209° (SSW) 1,652 9.1 27.5°
Drops below altitude 10° 16:57:04 10° 173° (S) 1,808 8.9 27.0°
Sets 16:59:52 0° 147° (SSE) 2,599 9.4 26.5°
